Location: Nairn
(57.5833°N, 3.8667°W)
Time: 01:13:23
(UTC+00:00)

In-Cosmos 22 - Pass Details

Date: 07 August 2020
Orbit: 784 x 877 km, 81.2° (Epoch: 19 September)

Event Time Altitude Azimuth Distance (km) Brightness Sun altitude
Rises 01:06:51 0° 344° (NNW) 3,460 8.5 -15.5°
Reaches altitude 10° 01:09:19 10° 345° (NNW) 2,508 7.7 -15.4°
Maximum altitude 01:15:02 84° 74° (ENE) 857 4.2 -15.2°
Enters shadow 01:19:17 18° 163° (SSE) 1,948 5.6 -15.1°
